GFSNGP_700_temp_237.txt.gz
Temp
-6 -6 -6 -5 -5 -4 -4 -4 -4 -3 -2 -1 -2 -2 -2 -2 -2 -2 -2 -3 -3 -2 -2 -0 1 1 1 2 2 3 3 4 4 5 5 6 6 6 7 8 8 9 9 9
-8 -7 -5 -5 -5 -5 -4 -4 -3 -3 -3 -2 -2 -2 -2 -2 -2 -2 -2 -3 -3 -2 -1 -1 -1 -0 1 2 2 2 3 3 4 4 4 5 5 6 6 7 8 8 8 8
-8 -6 -6 -6 -5 -4 -4 -4 -4 -3 -3 -2 -2 -2 -2 -3 -3 -3 -3 -3 -3 -3 -3 -0 0 1 1 1 2 2 2 3 3 3 4 4 5 5 6 7 7 8 8 8
-8 -8 -6 -5 -5 -5 -5 -4 -4 -4 -3 -3 -3 -3 -3 -3 -3 -4 -4 -4 -4 -4 -4 -4 -2 -0 1 1 1 2 2 2 3 3 4 4 4 5 6 7 7 7 7 7
-8 -6 -5 -5 -4 -4 -4 -4 -4 -4 -4 -4 -4 -4 -4 -4 -4 -5 -5 -5 -5 -5 -5 -5 -2 -1 -0 1 1 1 2 2 2 3 3 4 4 4 5 6 6 6 6 6
-8 -7 -5 -4 -5 -5 -5 -5 -4 -4 -4 -5 -5 -5 -5 -5 -6 -6 -7 -7 -7 -6 -6 -6 -3 -2 -2 -1 -0 1 1 2 2 2 3 3 3 4 4 5 6 6 6 6
-8 -7 -6 -5 -5 -6 -6 -5 -6 -6 -6 -6 -6 -7 -7 -7 -7 -7 -7 -7 -7 -7 -7 -7 -7 -4 -3 -3 -1 -1 -0 1 2 2 3 3 3 4 4 4 4 5 5 4
-8 -8 -6 -6 -6 -7 -7 -7 -7 -7 -7 -7 -8 -8 -8 -7 -7 -7 -7 -7 -7 -7 -7 -7 -7 -7 -5 -4 -3 -2 -1 -0 0 1 2 3 3 3 4 4 4 4 4 4
-8 -8 -8 -8 -7 -7 -7 -8 -8 -8 -8 -8 -8 -8 -8 -8 -7 -7 -7 -7 -7 -7 -7 -7 -7 -7 -7 -4 -4 -4 -2 -1 0 0 1 2 2 3 3 3 4 4 4 4
-8 -8 -8 -8 -8 -8 -8 -8 -8 -8 -8 -9 -8 -8 -8 -8 -7 -8 -7 -7 -7 -7 -7 -7 -7 -7 -7 -7 -6 -4 -4 -3 -1 -2 0 1 1 2 2 3 3 3 4 3
-9 -9 -9 -9 -8 -8 -8 -8 -9 -9 -9 -9 -9 -8 -9 -8 -8 -8 -8 -7 -7 -7 -7 -7 -7 -7 -7 -7 -7 -5 -5 -4 -3 -2 -2 -1 0 1 1 2 2 2 3 3
-9 -9 -9 -9 -9 -8 -8 -9 -9 -8 -7 -7 -7 -6 -7 -6 -7 -8 -8 -8 -8 -7 -7 -7 -7 -7 -7 -7 -7 -7 -4 -4 -4 -3 -3 -2 -2 -1 0 1 1 1 2 2
-8 -8 -8 -8 -8 -8 -9 -9 -8 -7 -7 -7 -6 -6 -6 -6 -6 -6 -6 -7 -8 -8 -8 -7 -7 -7 -7 -6 -7 -7 -6 -5 -3 -3 -3 -3 -3 -2 -2 -0 0 1 1 2
-8 -8 -9 -9 -9 -9 -8 -8 -8 -7 -7 -7 -6 -7 -7 -7 -6 -6 -6 -6 -6 -6 -6 -6 -6 -5 -6 -6 -6 -6 -5 -5 -4 -3 -3 -3 -3 -3 -3 -1 -1 0 1 1
-8 -9 -9 -8 -9 -9 -8 -8 -7 -7 -7 -7 -8 -8 -8 -7 -7 -6 -6 -7 -6 -6 -6 -6 -5 -5 -6 -6 -6 -6 -5 -6 -6 -5 -4 -3 -3 -4 -4 -2 -1 -1 1 0
-8 -8 -8 -8 -8 -8 -8 -8 -8 -7 -8 -8 -8 -7 -7 -7 -7 -7 -7 -7 -7 -7 -7 -6 -7 -7 -7 -7 -7 -7 -6 -7 -7 -7 -6 -5 -5 -4 -4 -2 -1 -1 -0 -0
-8 -8 -8 -8 -8 -8 -8 -8 -8 -8 -8 -8 -8 -8 -7 -7 -8 -8 -8 -8 -8 -8 -8 -7 -7 -7 -7 -7 -6 -7 -6 -6 -7 -7 -6 -6 -5 -4 -3 -2 -2 -3 -2 -1
-9 -9 -9 -9 -9 -8 -8 -8 -8 -8 -8 -8 -8 -8 -8 -8 -9 -9 -9 -9 -8 -8 -7 -6 -6 -6 -6 -7 -7 -6 -6 -6 -7 -7 -6 -5 -4 -4 -3 -2 -3 -2 -1 -1
-9 -9 -9 -9 -9 -9 -9 -8 -8 -8 -9 -8 -9 -9 -9 -9 -10 -10 -10 -10 -9 -8 -7 -7 -6 -6 -6 -6 -7 -7 -6 -6 -7 -6 -5 -6 -5 -4 -3 -3 -2 -2 -2 -3
-9 -9 -9 -9 -10 -9 -9 -9 -8 -9 -9 -9 -9 -9 -10 -10 -10 -10 -9 -9 -9 -8 -8 -8 -8 -8 -8 -8 -8 -8 -7 -6 -6 -6 -5 -5 -5 -5 -4 -4 -4 -4 -6 -7
-9 -9 -9 -9 -10 -9 -9 -9 -9 -9 -9 -10 -10 -10 -10 -10 -10 -10 -9 -9 -10 -10 -9 -8 -8 -8 -9 -9 -9 -9 -8 -8 -7 -7 -6 -7 -7 -7 -7 -7 -7 -7 -8 -8
-9 -9 -9 -10 -10 -10 -10 -9 -9 -10 -10 -10 -10 -10 -10 -10 -11 -11 -11 -10 -10 -10 -10 -9 -9 -9 -9 -9 -9 -9 -9 -9 -8 -8 -8 -8 -8 -8 -8 -8 -8 -8 -8 -8
-10 -10 -9 -9 -10 -10 -10 -10 -10 -9 -10 -10 -9 -10 -10 -10 -10 -10 -10 -10 -10 -10 -10 -10 -10 -10 -10 -9 -9 -9 -9 -9 -9 -9 -9 -9 -9 -9 -9 -9 -8 -9 -9 -9
-10 -10 -10 -9 -10 -10 -10 -10 -10 -10 -10 -10 -10 -10 -10 -10 -10 -10 -10 -10 -10 -10 -10 -10 -10 -10 -11 -10 -10 -10 -10 -10 -9 -9 -9 -9 -9 -9 -9 -9 -9 -9 -10 -10
-11 -10 -10 -9 -10 -10 -10 -10 -10 -10 -10 -10 -10 -10 -10 -10 -10 -10 -10 -9 -9 -9 -9 -9 -9 -9 -9 -9 -10 -10 -10 -10 -10 -10 -10 -10 -10 -10 -10 -10 -10 -10 -10 -10
-11 -10 -10 -10 -10 -10 -10 -10 -10 -11 -10 -10 -10 -10 -10 -10 -10 -10 -10 -10 -10 -9 -9 -9 -9 -9 -9 -9 -9 -9 -9 -9 -9 -10 -10 -10 -10 -10 -10 -10 -10 -10 -10 -10
-11 -10 -10 -10 -10 -10 -10 -10 -10 -10 -10 -10 -10 -10 -10 -11 -11 -11 -11 -10 -10 -10 -10 -9 -9 -9 -9 -9 -9 -9 -9 -9 -9 -10 -10 -10 -10 -10 -10 -10 -10 -10 -10 -10

GFSNGP_700_temp_240.txt.gz
Temp
-7 -7 -6 -5 -4 -4 -3 -4 -4 -4 -3 -2 -3 -3 -4 -4 -2 -2 -2 -2 -2 -2 -2 -2 -1 -0 1 1 1 2 2 3 4 4 5 5 5 5 6 6 6 7 7 8
-8 -6 -5 -4 -4 -4 -4 -4 -3 -3 -2 -2 -2 -1 -1 -3 -3 -2 -2 -2 -2 -2 -2 -2 -1 -1 -0 -0 0 1 1 2 2 3 3 4 4 5 5 6 6 6 7 7
-8 -6 -6 -6 -5 -4 -3 -3 -3 -3 -2 -2 -2 -2 -2 -2 -2 -3 -2 -2 -3 -3 -3 -3 -3 -2 -1 0 0 1 1 1 2 2 3 3 3 4 4 5 5 5 6 6
-8 -8 -7 -5 -4 -4 -3 -3 -3 -3 -3 -3 -3 -3 -3 -3 -4 -4 -4 -4 -3 -3 -4 -4 -4 -4 -3 -0 1 1 2 2 2 2 3 3 3 3 4 4 5 5 5 6
-8 -7 -6 -5 -4 -5 -4 -4 -4 -4 -4 -4 -4 -4 -4 -4 -6 -6 -6 -5 -5 -5 -5 -5 -4 -4 -3 -1 -1 0 1 1 1 2 2 3 3 3 3 3 4 4 5 6
-8 -8 -6 -4 -5 -5 -5 -5 -5 -6 -6 -6 -6 -6 -6 -6 -4 -5 -6 -7 -6 -6 -5 -5 -5 -6 -4 -3 -2 -1 -0 -0 0 1 2 2 3 3 3 3 3 4 4 5
-8 -8 -7 -5 -6 -6 -5 -6 -7 -7 -7 -7 -7 -7 -7 -7 -6 -6 -6 -6 -7 -6 -7 -6 -6 -6 -6 -4 -4 -3 -3 -2 -1 -0 1 1 2 2 2 3 3 4 4 4
-7 -7 -7 -7 -7 -7 -7 -7 -7 -7 -7 -7 -7 -7 -7 -7 -7 -7 -7 -7 -7 -7 -7 -7 -6 -6 -6 -6 -3 -4 -4 -4 -2 -1 -0 0 1 2 2 2 3 3 3 4
-8 -8 -7 -7 -7 -8 -7 -7 -7 -7 -7 -8 -8 -8 -8 -8 -8 -8 -8 -7 -7 -7 -7 -7 -7 -6 -6 -6 -7 -6 -5 -4 -4 -3 -2 -1 -0 0 1 2 2 3 3 3
-9 -8 -8 -8 -8 -8 -8 -8 -8 -8 -8 -8 -8 -8 -8 -8 -8 -8 -7 -8 -7 -7 -7 -7 -7 -7 -7 -7 -7 -7 -6 -4 -4 -3 -3 -2 -2 -2 -1 0 1 2 2 2
-9 -8 -9 -8 -8 -8 -8 -8 -8 -8 -8 -8 -9 -8 -8 -7 -7 -6 -7 -7 -7 -7 -7 -7 -7 -7 -7 -7 -7 -7 -7 -6 -5 -4 -3 -3 -4 -4 -3 -1 -1 -0 1 1
-9 -9 -8 -8 -8 -8 -8 -8 -8 -8 -8 -8 -8 -7 -7 -6 -6 -6 -6 -6 -6 -6 -7 -7 -7 -7 -6 -6 -6 -7 -7 -7 -6 -5 -4 -3 -3 -3 -4 -4 -3 -2 -1 0
-8 -8 -8 -8 -8 -8 -8 -8 -9 -9 -9 -8 -7 -7 -6 -6 -6 -6 -6 -6 -6 -7 -6 -7 -7 -6 -6 -6 -7 -6 -6 -6 -6 -6 -5 -4 -3 -4 -4 -4 -4 -3 -2 -1
-9 -8 -8 -8 -9 -9 -9 -9 -9 -8 -8 -8 -7 -7 -7 -7 -7 -7 -7 -7 -7 -6 -6 -6 -6 -6 -6 -6 -6 -7 -7 -7 -7 -7 -6 -5 -4 -4 -4 -4 -4 -4 -3 -2
-8 -8 -8 -8 -8 -8 -8 -8 -8 -8 -7 -7 -8 -8 -8 -7 -7 -7 -7 -7 -7 -7 -7 -7 -7 -7 -7 -7 -6 -6 -6 -6 -6 -6 -6 -6 -5 -5 -4 -5 -5 -4 -3 -2
-8 -8 -8 -8 -8 -8 -9 -9 -8 -8 -8 -8 -8 -8 -8 -8 -8 -7 -7 -8 -8 -8 -7 -7 -7 -7 -7 -7 -7 -7 -7 -6 -6 -7 -6 -6 -6 -7 -6 -6 -5 -4 -3 -2
-8 -8 -8 -8 -8 -9 -9 -9 -9 -9 -8 -8 -8 -9 -9 -9 -8 -8 -9 -10 -9 -9 -8 -8 -7 -7 -7 -7 -7 -7 -7 -8 -7 -7 -7 -7 -7 -7 -6 -6 -5 -4 -3 -3
-9 -9 -9 -9 -9 -9 -9 -9 -9 -9 -9 -9 -9 -9 -9 -9 -9 -9 -10 -10 -10 -10 -9 -9 -8 -7 -7 -7 -7 -7 -7 -7 -7 -7 -7 -7 -7 -7 -7 -6 -5 -4 -5 -4
-9 -9 -9 -9 -9 -9 -10 -10 -9 -9 -10 -9 -9 -9 -10 -10 -10 -10 -10 -10 -10 -9 -9 -9 -9 -8 -8 -8 -8 -8 -7 -6 -7 -6 -7 -7 -7 -7 -6 -5 -6 -5 -5 -4
-9 -9 -9 -9 -9 -9 -10 -10 -10 -10 -10 -10 -10 -10 -10 -10 -10 -10 -10 -11 -10 -10 -10 -10 -9 -9 -9 -9 -9 -9 -9 -8 -7 -7 -7 -7 -6 -6 -6 -6 -5 -5 -5 -5
-9 -9 -9 -10 -9 -9 -10 -10 -10 -10 -10 -10 -10 -10 -10 -10 -10 -10 -11 -11 -11 -10 -10 -10 -9 -9 -9 -9 -10 -9 -9 -8 -7 -7 -7 -7 -6 -6 -6 -6 -6 -6 -6 -6
-9 -9 -10 -10 -10 -10 -10 -10 -10 -10 -10 -10 -10 -10 -10 -10 -10 -10 -10 -10 -10 -10 -10 -10 -10 -10 -9 -9 -9 -9 -9 -9 -9 -9 -8 -8 -8 -7 -7 -7 -6 -6 -8 -8
-10 -10 -9 -10 -10 -10 -10 -10 -10 -10 -10 -10 -10 -10 -10 -9 -9 -9 -10 -9 -9 -9 -9 -9 -10 -10 -10 -10 -9 -9 -9 -10 -10 -10 -10 -10 -10 -9 -9 -9 -8 -8 -8 -9
-10 -10 -10 -10 -10 -10 -10 -10 -10 -10 -10 -10 -10 -10 -10 -9 -9 -9 -9 -9 -9 -9 -9 -9 -9 -9 -10 -10 -10 -10 -9 -9 -9 -9 -9 -9 -9 -9 -9 -9 -9 -9 -9 -9
-10 -10 -10 -11 -11 -10 -10 -10 -10 -10 -10 -10 -10 -10 -10 -10 -10 -10 -10 -9 -10 -9 -9 -9 -9 -9 -9 -10 -10 -10 -10 -10 -10 -10 -9 -10 -10 -10 -10 -10 -10 -9 -9 -10
-11 -11 -11 -11 -11 -10 -10 -10 -10 -10 -10 -10 -11 -11 -10 -11 -11 -11 -10 -10 -10 -10 -9 -9 -9 -9 -9 -10 -10 -10 -10 -11 -10 -10 -10 -10 -10 -10 -10 -10 -10 -10 -10 -10
-11 -11 -11 -11 -11 -11 -10 -10 -10 -10 -10 -10 -10 -10 -10 -10 -11 -11 -11 -11 -10 -10 -10 -10 -9 -9 -10 -10 -10 -10 -10 -10 -10 -10 -10 -10 -10 -10 -11 -11 -10 -10 -10 -10

GFSNGP_700_temp_246.txt.gz
Temp
-8 -7 -7 -7 -6 -5 -5 -5 -5 -4 -4 -4 -4 -4 -4 -5 -5 -5 -3 -3 -3 -3 -2 -2 -1 0 1 2 3 4 4 5 4 4 4 4 4 5 5 4 4 4 4 5
-9 -7 -7 -6 -5 -5 -5 -4 -4 -4 -5 -5 -4 -3 -3 -4 -4 -5 -4 -5 -4 -4 -4 -3 -3 -2 -0 1 2 2 2 2 3 2 2 3 3 3 3 3 4 4 4 4
-8 -8 -6 -5 -6 -5 -5 -5 -5 -6 -7 -6 -5 -5 -4 -4 -4 -4 -4 -3 -3 -3 -3 -2 -2 -2 -1 -1 0 1 1 1 1 1 1 1 2 2 2 2 2 3 3 3
-8 -7 -12 -6 -6 -6 -6 -6 -7 -7 -6 -6 -6 -6 -6 -5 -4 -4 -4 -4 -4 -3 -3 -3 -3 -3 -3 -2 -2 -1 -1 -1 -0 -0 1 1 1 1 2 2 2 2 2 2
-8 -8 -7 -6 -6 -6 -7 -7 -7 -7 -7 -7 -6 -6 -6 -6 -6 -5 -5 -5 -4 -4 -4 -3 -3 -3 -3 -3 -3 -3 -3 -3 -3 -2 -1 -0 1 1 1 2 2 2 2 2
-8 -9 -12 -7 -7 -6 -7 -7 -7 -8 -7 -7 -7 -6 -5 -6 -6 -5 -5 -5 -4 -4 -4 -4 -4 -4 -4 -4 -4 -3 -4 -3 -3 -3 -2 -1 -0 0 1 1 2 2 2 2
-8 -8 -8 -8 -8 -7 -7 -7 -7 -7 -7 -7 -8 -7 -7 -6 -5 -6 -6 -5 -5 -5 -5 -4 -4 -5 -4 -4 -4 -4 -4 -4 -4 -3 -3 -3 -2 -2 -1 -0 1 2 2 2
-8 -8 -9 -8 -8 -8 -8 -8 -8 -8 -8 -8 -8 -8 -8 -7 -6 -5 -5 -6 -6 -6 -5 -5 -5 -5 -4 -4 -4 -4 -4 -4 -4 -4 -4 -5 -5 -4 -3 -3 -1 -1 0 -0
-9 -8 -7 -7 -8 -8 -8 -9 -8 -9 -9 -8 -8 -8 -8 -7 -7 -7 -6 -6 -6 -5 -5 -5 -5 -5 -5 -5 -5 -4 -4 -3 -4 -5 -5 -5 -5 -6 -5 -5 -5 -3 -2 -1
-9 -8 -8 -8 -9 -8 -8 -9 -8 -8 -8 -8 -8 -8 -8 -8 -7 -7 -7 -6 -6 -6 -5 -5 -5 -5 -5 -5 -5 -5 -5 -5 -5 -5 -6 -6 -6 -6 -6 -6 -6 -6 -4 -3
-9 -8 -9 -9 -8 -8 -8 -8 -8 -8 -8 -8 -8 -8 -8 -7 -7 -7 -7 -7 -7 -6 -6 -5 -5 -5 -5 -5 -5 -4 -4 -4 -4 -5 -5 -6 -6 -6 -6 -6 -7 -7 -6 -4
-9 -9 -9 -8 -8 -9 -8 -8 -8 -8 -8 -8 -8 -8 -8 -7 -7 -7 -7 -7 -7 -7 -6 -6 -6 -6 -6 -6 -5 -5 -5 -5 -5 -5 -5 -7 -7 -7 -7 -6 -7 -7 -7 -6
-9 -9 -9 -9 -9 -8 -8 -8 -8 -8 -9 -9 -9 -9 -8 -8 -8 -7 -8 -8 -8 -8 -7 -7 -6 -6 -6 -6 -5 -5 -5 -5 -5 -5 -5 -5 -6 -6 -7 -7 -7 -7 -7 -7
-9 -9 -9 -9 -9 -9 -8 -8 -8 -8 -9 -9 -9 -9 -8 -8 -8 -8 -8 -9 -9 -8 -8 -8 -8 -8 -8 -8 -7 -7 -6 -6 -6 -5 -5 -5 -5 -6 -6 -7 -7 -7 -7 -7
-9 -8 -9 -9 -9 -9 -8 -8 -8 -8 -9 -9 -9 -8 -8 -9 -9 -9 -9 -9 -9 -9 -9 -9 -9 -9 -9 -9 -8 -8 -7 -7 -7 -7 -6 -6 -6 -6 -6 -6 -6 -7 -7 -7
-8 -9 -9 -9 -8 -8 -8 -8 -8 -9 -9 -9 -9 -9 -9 -10 -10 -10 -10 -10 -10 -10 -10 -10 -10 -10 -9 -9 -8 -8 -7 -7 -7 -7 -7 -7 -7 -6 -6 -6 -6 -6 -6 -6
-9 -9 -9 -9 -8 -8 -8 -8 -9 -9 -9 -9 -10 -10 -10 -10 -10 -11 -10 -10 -11 -11 -11 -10 -10 -10 -9 -9 -9 -8 -7 -7 -8 -8 -9 -8 -8 -8 -7 -7 -7 -6 -6 -7
-9 -9 -9 -9 -9 -8 -8 -8 -9 -9 -9 -9 -10 -10 -10 -10 -10 -10 -10 -10 -10 -10 -10 -10 -10 -10 -10 -9 -9 -9 -9 -9 -9 -9 -9 -9 -8 -8 -8 -8 -7 -7 -7 -7
-9 -9 -9 -9 -8 -8 -9 -9 -8 -9 -9 -9 -10 -10 -10 -10 -10 -10 -10 -10 -10 -10 -10 -9 -10 -10 -10 -10 -9 -9 -9 -10 -10 -10 -9 -9 -9 -8 -8 -8 -8 -8 -8 -7
-10 -9 -9 -9 -9 -9 -9 -9 -9 -9 -9 -9 -10 -10 -10 -10 -10 -10 -10 -10 -10 -10 -10 -10 -9 -10 -10 -10 -9 -9 -10 -10 -10 -10 -9 -9 -8 -8 -7 -7 -8 -8 -8 -8
-10 -10 -10 -9 -9 -9 -9 -9 -9 -9 -9 -10 -10 -10 -10 -10 -10 -10 -10 -10 -10 -10 -10 -9 -9 -9 -10 -10 -10 -9 -10 -10 -10 -9 -9 -9 -8 -8 -8 -8 -8 -8 -8 -8
-10 -10 -10 -10 -10 -10 -10 -9 -10 -10 -10 -10 -10 -10 -10 -10 -10 -10 -10 -10 -10 -10 -10 -9 -9 -9 -10 -10 -10 -10 -10 -10 -11 -10 -9 -9 -8 -8 -8 -8 -8 -8 -8 -8
-11 -11 -11 -10 -10 -9 -10 -10 -10 -10 -10 -10 -10 -10 -10 -10 -10 -10 -10 -10 -10 -10 -10 -10 -9 -9 -10 -10 -10 -10 -10 -10 -11 -11 -10 -10 -9 -8 -8 -8 -8 -7 -8 -8
-11 -11 -11 -11 -10 -10 -10 -11 -11 -11 -10 -10 -10 -10 -10 -10 -10 -10 -10 -10 -11 -10 -10 -10 -10 -10 -10 -10 -10 -10 -10 -10 -10 -11 -11 -11 -10 -9 -9 -9 -8 -8 -9 -9
-11 -11 -11 -11 -11 -10 -11 -11 -11 -11 -11 -11 -10 -11 -11 -10 -10 -10 -10 -10 -11 -11 -10 -10 -10 -10 -10 -10 -10 -10 -10 -10 -10 -10 -11 -11 -11 -11 -10 -10 -10 -10 -10 -10
-12 -12 -12 -12 -12 -12 -12 -12 -12 -11 -11 -11 -11 -10 -10 -11 -10 -10 -11 -11 -11 -11 -10 -10 -10 -10 -10 -10 -10 -10 -10 -10 -10 -10 -10 -11 -11 -11 -11 -11 -10 -10 -10 -10
-13 -13 -13 -13 -13 -13 -13 -13 -13 -13 -12 -11 -11 -11 -11 -11 -11 -10 -10 -11 -11 -11 -10 -10 -10 -10 -10 -10 -10 -10 -10 -10 -10 -10 -10 -10 -11 -11 -11 -11 -10 -10 -10 -10

GFSNGP_700_temp_249.txt.gz
Temp
-8 -7 -8 -7 -6 -6 -5 -5 -5 -6 -6 -6 -4 -4 -6 -6 -6 -5 -5 -4 -4 -4 -4 -4 -4 -4 -2 -1 -1 -0 1 1 1 2 3 4 4 5 5 5 5 5 5 5
-8 -7 -7 -6 -6 -6 -5 -6 -6 -6 -6 -7 -7 -7 -7 -6 -6 -6 -5 -4 -5 -4 -4 -4 -4 -4 -4 -5 -4 -3 -3 -3 -1 0 0 2 3 3 4 4 4 4 5 4
-8 -8 -7 -7 -7 -7 -6 -6 -6 -6 -7 -7 -6 -6 -6 -6 -7 -6 -6 -5 -4 -4 -4 -4 -4 -4 -4 -4 -4 -4 -3 -2 -1 -1 -1 -0 1 1 2 2 3 3 3 3
-8 -7 -11 -7 -6 -7 -7 -7 -7 -7 -8 -7 -7 -6 -6 -6 -5 -5 -5 -5 -5 -4 -4 -4 -4 -4 -4 -4 -3 -3 -3 -3 -2 -1 -0 0 1 1 1 1 1 1 2 2
-8 -8 -8 -7 -7 -7 -7 -7 -7 -8 -8 -8 -7 -7 -6 -6 -6 -6 -5 -5 -5 -5 -4 -4 -4 -4 -3 -3 -3 -3 -3 -3 -2 -1 -1 -1 0 1 1 1 1 1 1 2
-9 -8 -13 -7 -7 -7 -7 -7 -8 -8 -8 -8 -7 -7 -6 -6 -6 -6 -6 -6 -5 -5 -4 -4 -4 -4 -3 -3 -3 -3 -3 -3 -3 -2 -2 -0 -0 -1 -1 -0 0 1 1 1
-8 -9 -8 -8 -8 -8 -8 -8 -8 -8 -8 -8 -8 -8 -8 -8 -8 -8 -7 -6 -6 -5 -5 -5 -5 -4 -4 -4 -4 -4 -3 -3 -3 -3 -2 -2 -2 -2 -2 -1 -1 0 1 1
-9 -9 -10 -8 -8 -8 -9 -8 -8 -9 -9 -8 -8 -8 -8 -8 -8 -8 -8 -8 -7 -6 -5 -5 -5 -5 -5 -4 -4 -4 -4 -3 -3 -3 -3 -3 -3 -3 -3 -2 -2 -2 -2 -1
-8 -8 -8 -8 -8 -8 -9 -9 -8 -8 -8 -8 -8 -8 -8 -8 -8 -8 -7 -7 -7 -7 -6 -6 -5 -5 -4 -4 -4 -4 -4 -4 -4 -3 -3 -3 -3 -3 -3 -4 -4 -4 -4 -3
-8 -8 -8 -8 -9 -9 -9 -8 -8 -8 -8 -8 -8 -8 -8 -8 -8 -7 -7 -7 -6 -6 -6 -6 -6 -5 -5 -5 -4 -4 -4 -4 -4 -4 -3 -3 -3 -3 -3 -3 -4 -4 -5 -4
-9 -8 -8 -9 -9 -9 -8 -8 -8 -8 -8 -8 -8 -8 -8 -8 -8 -8 -7 -7 -6 -6 -6 -6 -6 -6 -6 -5 -5 -4 -4 -3 -3 -3 -3 -4 -4 -4 -4 -4 -5 -5 -5 -6
-7 -8 -8 -8 -8 -8 -7 -8 -8 -8 -8 -8 -8 -8 -8 -9 -8 -8 -8 -7 -7 -7 -7 -7 -7 -7 -7 -7 -6 -6 -5 -5 -5 -5 -5 -4 -4 -4 -5 -5 -5 -5 -5 -6
-8 -8 -8 -8 -8 -8 -8 -8 -8 -8 -8 -8 -8 -9 -9 -9 -8 -8 -8 -8 -8 -8 -8 -8 -8 -8 -8 -8 -8 -8 -7 -7 -7 -6 -6 -5 -5 -4 -4 -5 -5 -5 -6 -7
-8 -8 -8 -8 -8 -9 -8 -8 -8 -8 -9 -9 -9 -9 -8 -9 -9 -9 -10 -10 -9 -9 -9 -10 -10 -10 -9 -9 -9 -8 -8 -8 -8 -7 -7 -6 -6 -5 -5 -5 -5 -5 -6 -7
-8 -8 -9 -8 -9 -9 -8 -8 -8 -8 -9 -9 -9 -9 -9 -10 -10 -10 -10 -10 -10 -10 -10 -10 -10 -10 -10 -10 -9 -9 -8 -8 -8 -7 -6 -6 -6 -6 -6 -6 -6 -5 -6 -6
-8 -9 -9 -8 -9 -9 -8 -8 -8 -8 -8 -9 -9 -9 -10 -10 -10 -10 -10 -10 -10 -10 -10 -10 -10 -10 -10 -9 -9 -9 -9 -8 -8 -7 -7 -7 -7 -6 -6 -6 -7 -6 -6 -6
-8 -9 -9 -9 -9 -9 -8 -8 -8 -9 -8 -9 -9 -9 -10 -10 -10 -10 -10 -10 -10 -10 -10 -10 -10 -10 -10 -9 -10 -10 -9 -9 -8 -9 -9 -9 -9 -9 -9 -8 -7 -8 -7 -7
-9 -9 -9 -9 -9 -8 -8 -9 -9 -9 -8 -9 -9 -9 -9 -10 -10 -10 -10 -10 -10 -10 -10 -10 -10 -10 -9 -9 -10 -10 -9 -9 -9 -9 -9 -10 -10 -10 -10 -9 -9 -8 -8 -8
-9 -9 -9 -9 -9 -9 -9 -9 -9 -9 -9 -9 -9 -9 -10 -10 -10 -10 -10 -10 -10 -10 -10 -10 -9 -9 -9 -9 -10 -10 -9 -9 -9 -10 -10 -10 -9 -9 -10 -9 -8 -8 -8 -8
-9 -9 -9 -9 -9 -9 -9 -9 -9 -9 -9 -9 -9 -9 -10 -10 -10 -10 -10 -10 -10 -10 -10 -10 -9 -9 -9 -9 -10 -10 -10 -10 -10 -10 -10 -10 -9 -9 -8 -8 -8 -8 -8 -8
-10 -10 -10 -10 -10 -10 -10 -10 -9 -9 -9 -9 -10 -10 -10 -10 -10 -10 -10 -10 -10 -10 -10 -10 -10 -9 -10 -10 -10 -10 -10 -10 -10 -10 -10 -9 -8 -8 -8 -8 -8 -8 -8 -8
-10 -10 -10 -10 -10 -10 -10 -10 -10 -9 -9 -10 -10 -10 -10 -10 -10 -10 -10 -10 -10 -10 -10 -10 -10 -10 -10 -10 -11 -11 -10 -10 -10 -10 -10 -10 -9 -8 -9 -9 -9 -9 -8 -8
-10 -10 -11 -11 -10 -10 -10 -10 -10 -10 -10 -10 -11 -11 -10 -10 -10 -10 -10 -10 -10 -10 -10 -10 -10 -10 -10 -10 -11 -11 -10 -10 -10 -10 -11 -10 -9 -9 -9 -9 -8 -8 -8 -8
-11 -11 -11 -11 -11 -10 -10 -10 -10 -10 -11 -11 -11 -11 -11 -10 -10 -10 -10 -10 -10 -11 -11 -10 -10 -10 -10 -10 -11 -11 -11 -10 -11 -11 -11 -11 -10 -9 -9 -8 -8 -8 -9 -9
-11 -11 -11 -11 -11 -11 -11 -11 -11 -12 -12 -11 -11 -11 -11 -11 -10 -10 -10 -10 -10 -11 -11 -10 -10 -10 -10 -10 -10 -11 -11 -11 -11 -11 -11 -11 -11 -10 -9 -9 -9 -9 -10 -10
-12 -11 -11 -11 -12 -12 -12 -12 -12 -12 -13 -12 -12 -12 -11 -11 -11 -10 -10 -11 -10 -11 -11 -11 -10 -10 -10 -10 -10 -10 -11 -11 -11 -11 -11 -11 -11 -11 -11 -11 -11 -11 -11 -11
-12 -12 -12 -13 -14 -13 -13 -13 -13 -13 -13 -14 -13 -13 -12 -11 -11 -11 -10 -11 -11 -11 -11 -11 -11 -11 -10 -11 -11 -11 -11 -11 -11 -11 -11 -11 -11 -11 -11 -11 -11 -11 -11 -11